"Pseudo-MPEC" for TF26H34

Created 2026 Aug 10 16:35:22 UT using Find_Orb

Click here for an explanation of pseudo-MPECs

 
 Astrometry: 
     TF26H34* C2026 08 10.31225421 44 07.271+00 21 43.68   ~8A8K 17.33GVNEOCPU74
     TF26H34  C2026 08 10.31559521 44 21.951+00 19 26.88   ~8A8K 17.33GVNEOCPU74
     TF26H34  C2026 08 10.35215421 47 05.399-00 05 59.56   ~8A8o 17.28GVNEOCPU74
     TF26H34  C2026 08 10.35549521 47 20.612-00 08 21.57   ~8A8o 17.28GVNEOCPU74
     TF26H34  C2026 08 10.36029721 47 42.579-00 11 47.13   ~8A95 17.23GVNEOCPU74
     TF26H34  C2026 08 10.36363821 47 57.925-00 14 10.51   ~8A95 17.23GVNEOCPU74
     TF26H34  C2026 08 10.39204821 50 10.474-00 34 48.12   ~8A9o 17.17GVNEOCPU74
     TF26H34  C2026 08 10.39539021 50 26.323-00 37 15.92   ~8A9o 17.17GVNEOCPU74
     TF26H34 KB2026 08 10.48863121 59 32.688-01 48 43.74   ~8ACZ 17.9 GWNEOCP900
     TF26H34 KB2026 08 10.49368821 59 59.945-01 52 49.94   ~8ACZ 17.8 GWNEOCP900
     TF26H34 KB2026 08 10.49874522 00 27.190-01 56 56.51   ~8ACZ 18.3 GWNEOCP900
     TF26H34 KB2026 08 10.51167622 01 37.234-02 07 38.83   ~8ACZ 17.2 GXNEOCPQ06
     TF26H34 KB2026 08 10.51407622 01 50.420-02 09 37.35   ~8ACZ 17.4 GXNEOCPQ06
     TF26H34 KB2026 08 10.51647722 02 03.556-02 11 37.56   ~8ACZ 17.4 GXNEOCPQ06

Station data:
(900) Moriyama  (N35.049753 E135.989940)  Japan.  Observer Y. Ikari. 0.26-m
   f/7.0 reflector + CCD.
(Q06) Tarui Observatory, Tarui  (N35.394791 E136.495470)  Japan.  Observer H.
   Watanabe. 0.35-m f/1.9 Schmidt-Cassegrain + CMO.
(U74) JPL SynTrack Robotic Telescope 2, Auberry  (N37.070341 W119.412800)
   US/California.  Observers N. Saini, C. Zhai, R. Trahan, M. Zhan, M. Shao.
   0.36-m f/2.2 Schmidt.

Orbital elements:  TF26H34
   Perihelion 2026 Sep 18.724617 +/- 0.0513 TT = 17:23:26.8 (JD 2461302.224617)
Epoch 2026 Aug 10.0 TT = JDT 2461262.5   Earth MOID: 0.0050      AutoNEOCP
M 340.024502541 +/- 0.039           (J2000 ecliptic)
n   0.502849344 +/- 0.000917        Peri.  227.819059 +/- 0.09
a   1.566188835 +/- 0.0019          Node   138.059700 +/- 0.00030
e   0.41053348 +/- 0.000939         Incl.   12.394173 +/- 0.020
P   1.960/715.907d         H 26.83  G  0.15   U  8.0
q 0.923215879 +/- 0.000465    Q 2.209161790 +/- 0.00413
From 14 observations 2026 Aug. 10 (4.9 hr); mean residual 0".34
Residuals in arcseconds: 
260810 U74  .03+  .07+    260810 U74  .04+  .14-    260810 900  1.4-  .12+    
260810 U74  .14+  .07+    260810 U74  .07+  .11-    260810 Q06  .12-  .12-    
260810 U74  .08-  .04+    260810 U74  .06+  .10-    260810 Q06  .58+  .55+    
260810 U74  .16-  .25+    260810 900  .42+  .01-    260810 Q06  .10+  .15-    
260810 U74  .06-  .10-    260810 900  .36+  .37-    

Ephemerides (geocentric):
Date (UTC) HH   RA             Dec           delta  r     elong  mag " sig PA
---- --------  ------------   ------------  ------ ------ -----  --- --------
2026 08 10 17  22 21 23.431   -04 55 02.49  .00848 1.0217 161.7 17.5 9.97 118
2026 08 10 18  22 26 15.934   -05 36 43.60  .00831 1.0215 161.1 17.4 13.4 118
2026 08 10 19  22 31 21.031   -06 19 56.54  .00815 1.0213 160.5 17.4 17.4 118
2026 08 10 20  22 36 39.235   -07 04 41.49  .00799 1.0211 159.7 17.4 22.2 117
2026 08 10 21  22 42 11.045   -07 50 57.84  .00784 1.0209 158.8 17.4 27.7 117
2026 08 10 22  22 47 56.944   -08 38 44.04  .00769 1.0207 157.8 17.4 34.1 117
2026 08 10 23  22 53 57.384   -09 27 57.49  .00755 1.0205 156.7 17.4 41.3 117
2026 08 11 00  23 00 12.778   -10 18 34.35  .00742 1.0203 155.5 17.4 49.4 117
2026 08 11 01  23 06 43.481   -11 10 29.42  .00730 1.0201 154.2 17.4 58.5 117
2026 08 11 02  23 13 29.785   -12 03 36.03  .00718 1.0200 152.8 17.4 68.6 116
2026 08 11 03  23 20 31.891   -12 57 45.86  .00707 1.0198 151.2 17.4 79.6 116
2026 08 11 04  23 27 49.902   -13 52 48.94  .00697 1.0196 149.6 17.4 91.7 116
2026 08 11 05  23 35 23.799   -14 48 33.56  .00688 1.0194 148.0 17.4  105 115
2026 08 11 06  23 43 13.423   -15 44 46.32  .00680 1.0192 146.2 17.4  119 115
2026 08 11 07  23 51 18.458   -16 41 12.20  .00672 1.0190 144.4 17.5  133 114
2026 08 11 08  23 59 38.416   -17 37 34.70  995908 1.0188 142.4 17.5  149 114
2026 08 11 09  00 08 12.619   -18 33 36.09  987819 1.0186 140.5 17.5  165 113
2026 08 11 10  00 17 00.194   -19 28 57.76  981259 1.0184 138.5 17.6  182 113
2026 08 11 11  00 26 00.064   -20 23 20.54  976259 1.0182 136.4 17.6  200 112
2026 08 11 12  00 35 10.952   -21 16 25.18  972842 1.0181 134.3 17.7  217 111
2026 08 11 13  00 44 31.388   -22 07 52.85  971026 1.0179 132.2 17.7  235 110
2026 08 11 14  00 53 59.723   -22 57 25.62  970819 1.0177 130.0 17.8  252 109
2026 08 11 15  01 03 34.156   -23 44 46.96  972222 1.0175 127.9 17.8  270 108
2026 08 11 16  01 13 12.763   -24 29 42.15  975227 1.0173 125.7 17.9  287 107
2026 08 11 17  01 22 53.531   -25 11 58.71  979821 1.0171 123.6 18.0  303 106
2026 08 11 18  01 32 34.403   -25 51 26.65  985981 1.0169 121.5 18.1  319 105
2026 08 11 19  01 42 13.320   -26 27 58.65  993676 1.0167 119.4 18.1  333 104
2026 08 11 20  01 51 48.264   -27 01 30.13  .00670 1.0165 117.3 18.2  347 103
2026 08 11 21  02 01 17.299   -27 31 59.22  .00678 1.0163 115.3 18.3  360 102
2026 08 11 22  02 10 38.610   -27 59 26.59  .00686 1.0162 113.3 18.4  372 101
2026 08 11 23  02 19 50.530   -28 23 55.22  .00695 1.0160 111.3 18.5  382 100
2026 08 12 00  02 28 51.571   -28 45 30.17  .00704 1.0158 109.4 18.6  392  99
2026 08 12 01  02 37 40.435   -29 04 18.19  .00715 1.0156 107.6 18.7  400  98
2026 08 12 02  02 46 16.023   -29 20 27.39  .00727 1.0154 105.8 18.7  407  97
2026 08 12 03  02 54 37.443   -29 34 06.94  .00739 1.0152 104.1 18.8  414  96
2026 08 12 04  03 02 43.996   -29 45 26.69  .00752 1.0150 102.4 18.9  419  95
2026 08 12 05  03 10 35.177   -29 54 36.92  .00766 1.0148 100.8 19.0  423  94
2026 08 12 06  03 18 10.651   -30 01 48.05  .00780 1.0147  99.2 19.1  427  93
2026 08 12 07  03 25 30.246   -30 07 10.43  .00795 1.0145  97.7 19.2  430  92
2026 08 12 08  03 32 33.930   -30 10 54.20  .00810 1.0143  96.3 19.3  432  91
2026 08 12 09  03 39 21.793   -30 13 09.09  .00827 1.0141  94.9 19.4  433  90
2026 08 12 10  03 45 54.029   -30 14 04.37  .00843 1.0139  93.6 19.5  434  89
2026 08 12 11  03 52 10.920   -30 13 48.73  .00860 1.0137  92.3 19.6  434  89
2026 08 12 12  03 58 12.818   -30 12 30.29  .00878 1.0135  91.1 19.7  434  88
2026 08 12 13  04 04 00.130   -30 10 16.58  .00896 1.0133  89.9 19.8  433  87
2026 08 12 14  04 09 33.305   -30 07 14.46  .00914 1.0132  88.7 19.9  432  86
2026 08 12 15  04 14 52.824   -30 03 30.23  .00933 1.0130  87.7 20.0  431  86
2026 08 12 16  04 19 59.185   -29 59 09.59  .00952 1.0128  86.6 20.0  429  85